Yuma MCAS, AZ

7:52 PM MST on May 22, 2017 (GMT -0700)
Yuma Marine Corps Air Station

Weather History for KNYL - January, 2013

Change the Weather History Date:

Wednesday, January 23, 2013

  Actual Average Record
Temperature  
Mean Temperature 66 °F 59 °F  
Max Temperature 79 °F 70 °F 83 °F (1950)
Min Temperature 52 °F 48 °F 25 °F (1937)
Degree Days  
Heating Degree Days 0 6  
Month to date heating degree days 238 158  
Since 1 July heating degree days 475 462  
Cooling Degree Days 1 0  
Month to date cooling degree days 1 0  
Year to date cooling degree days 1 0  
Growing Degree Days 16 (Base 50)    
Moisture  
Dew Point 23 °F    
Average Humidity 22    
Maximum Humidity 31    
Minimum Humidity 12    
Precipitation  
Precipitation 0.00 in 0.01 in 0.25 in (1967)
Month to date precipitation 0.00 0.29  
Year to date precipitation 0.00 0.29  
Sea Level Pressure  
Sea Level Pressure 30.07 in    
Wind  
Wind Speed 5 mph (NNE)    
Max Wind Speed 17 mph    
Max Gust Speed 22 mph    
Visibility 10 miles    
Events      
T = Trace of Precipitation, MM = Missing Value Source: NWS Daily Summary

Daily Weather History Graph

Daily Weather History Graph

Search for Another Location

Airport or City:

Trip Planner

Search our weather history database for the weather conditions in past years. The results will help you decide how hot, cold, wet, or windy it might be!

Date:

Astronomy

Jan. 23, 2013 Rise Set
Actual Time 7:37 AM MST 6:03 PM MST
Civil Twilight 7:11 AM MST 6:29 PM MST
Nautical Twilight 6:41 AM MST 6:59 PM MST
Astronomical Twilight 6:12 AM MST 7:28 PM MST
Moon 3:19 PM MST 4:50 AM MST
Length of Visible Light 11h 17m
Length of Day
10h 25m
Waxing Gibbous, 89% of the Moon is Illuminated
Jan 23
Waxing Gibbous
Jan 26
Full
Feb 3
Last Quarter
Feb 10
New
Feb 17
First Quarter

Hourly Weather History & Observations

Time (MST) Temp. Dew Point Humidity Pressure Visibility Wind Dir Wind Speed Gust Speed Precip Events Conditions
12:55 AM 57.9 °F 18.0 °F 21% 30.08 in 10.0 mi NE 5.8 mph - N/A   Mostly Cloudy
1:55 AM 55.9 °F 21.0 °F 26% 30.08 in 10.0 mi NNW 3.5 mph - N/A   Mostly Cloudy
2:55 AM 57.0 °F 19.0 °F 23% 30.08 in 10.0 mi Calm Calm - N/A   Mostly Cloudy
3:55 AM 53.1 °F 19.9 °F 27% 30.08 in 10.0 mi Calm Calm - N/A   Mostly Cloudy
4:55 AM 55.9 °F 18.0 °F 23% 30.07 in 10.0 mi North 5.8 mph - N/A   Mostly Cloudy
5:55 AM 57.0 °F 18.0 °F 22% 30.07 in 10.0 mi NNE 5.8 mph - N/A   Mostly Cloudy
6:55 AM 57.0 °F 17.1 °F 21% 30.09 in 10.0 mi NNE 9.2 mph - N/A   Mostly Cloudy
7:55 AM 55.9 °F 19.0 °F 24% 30.10 in 10.0 mi North 5.8 mph - N/A   Mostly Cloudy
8:55 AM 57.9 °F 19.0 °F 22% 30.11 in 10.0 mi NNE 9.2 mph - N/A   Mostly Cloudy
9:55 AM 64.0 °F 19.9 °F 18% 30.12 in 10.0 mi NNE 11.5 mph - N/A   Mostly Cloudy
10:55 AM 66.0 °F 19.9 °F 17% 30.12 in 10.0 mi NE 12.7 mph - N/A   Smoke
11:55 AM 71.1 °F 18.0 °F 13% 30.12 in 10.0 mi NNE 10.4 mph - N/A   Mostly Cloudy
12:55 PM 75.0 °F 19.9 °F 13% 30.09 in 10.0 mi NE 10.4 mph - N/A   Mostly Cloudy
1:55 PM 77.0 °F 21.9 °F 13% 30.06 in 10.0 mi NNE 6.9 mph - N/A   Mostly Cloudy
2:55 PM 79.0 °F 23.0 °F 13% 30.03 in 10.0 mi NE 8.1 mph - N/A   Mostly Cloudy
3:55 PM 79.0 °F 25.0 °F 14% 30.02 in 10.0 mi North 3.5 mph - N/A   Mostly Cloudy
4:55 PM 77.0 °F 26.1 °F 15% 30.03 in 10.0 mi North 4.6 mph - N/A   Mostly Cloudy
5:55 PM 73.9 °F 28.9 °F 19% 30.04 in 10.0 mi WSW 3.5 mph - N/A   Mostly Cloudy
6:55 PM 72.0 °F 25.0 °F 17% 30.04 in 10.0 mi NNW 3.5 mph - N/A   Mostly Cloudy
7:55 PM 71.1 °F 25.0 °F 18% 30.04 in 10.0 mi Calm Calm - N/A   Mostly Cloudy
8:55 PM 66.9 °F 30.0 °F 25% 30.05 in 10.0 mi Calm Calm - N/A   Mostly Cloudy
9:55 PM 64.9 °F 32.0 °F 29% 30.07 in 10.0 mi Calm Calm - N/A   Mostly Cloudy
10:55 PM 64.9 °F 33.1 °F 31% 30.07 in 10.0 mi ESE 4.6 mph - N/A   Mostly Cloudy
11:55 PM 64.9 °F 27.0 °F 24% 30.08 in 10.0 mi SSE 3.5 mph - N/A   Overcast